Time,TemperatureF,DewpointF,PressureIn,WindDirection,WindDirectionDegrees,WindSpeedMPH,WindSpeedGustMPH,Humidity,HourlyPrecipIn,Conditions,Clouds,dailyrainin,SoftwareType,DateUTC
2013-02-21 00:00:00,23.3,14.0,29.87,WSW,256,7.0,10.0,67,0.00,,,0.00,LWC V2.10 B1813,2013-02-21 05:00:00,
2013-02-21 00:05:00,23.4,14.1,29.87,WSW,254,3.0,9.0,67,0.00,,,0.00,LWC V2.10 B1813,2013-02-21 05:05:00,
2013-02-21 00:10:00,23.3,14.0,29.88,NNW,336,12.0,12.0,67,0.00,,,0.00,LWC V2.10 B1813,2013-02-21 05:10:00,
2013-02-21 00:15:00,23.3,14.0,29.89,WNW,287,1.0,8.0,67,0.00,,,0.00,LWC V2.10 B1813,2013-02-21 05:15:00,
2013-02-21 00:20:00,23.3,14.0,29.88,WSW,257,8.0,15.0,67,0.00,,,0.00,LWC V2.10 B1813,2013-02-21 05:20:00,
2013-02-21 00:25:00,23.3,14.0,29.88,West,279,4.0,15.0,67,0.00,,,0.00,LWC V2.10 B1813,2013-02-21 05:25:00,
2013-02-21 00:30:00,23.3,14.0,29.88,SW,221,6.0,9.0,67,0.00,,,0.00,LWC V2.10 B1813,2013-02-21 05:30:00,
2013-02-21 00:35:00,23.3,14.0,29.88,West,261,6.0,13.0,67,0.00,,,0.00,LWC V2.10 B1813,2013-02-21 05:35:00,
2013-02-21 00:40:00,23.2,13.9,29.88,SW,234,7.0,8.0,67,0.00,,,0.00,LWC V2.10 B1813,2013-02-21 05:40:00,
2013-02-21 00:45:00,23.2,13.6,29.88,NW,311,3.0,10.0,66,0.00,,,0.00,LWC V2.10 B1813,2013-02-21 05:45:00,
2013-02-21 00:50:00,23.2,13.6,29.88,WSW,252,5.0,9.0,66,0.00,,,0.00,LWC V2.10 B1813,2013-02-21 05:50:00,
2013-02-21 00:55:00,23.1,13.5,29.88,WSW,240,4.0,9.0,66,0.00,,,0.00,LWC V2.10 B1813,2013-02-21 05:55:00,
2013-02-21 00:57:00,23.2,13.9,29.88,WSW,250,3.0,8.0,67,0.00,,,0.00,LWC V2.10 B1813,2013-02-21 05:57:00,
2013-02-21 01:02:00,23.0,13.7,29.88,WSW,250,1.0,11.0,67,0.00,,,0.00,LWC V2.10 B1813,2013-02-21 06:02:00,
2013-02-21 01:07:00,23.0,14.0,29.88,WSW,250,4.0,16.0,68,0.00,,,0.00,LWC V2.10 B1813,2013-02-21 06:07:00,
2013-02-21 01:12:00,22.9,13.6,29.88,WNW,285,8.0,17.0,67,0.00,,,0.00,LWC V2.10 B1813,2013-02-21 06:12:00,
2013-02-21 01:17:00,22.8,13.5,29.87,WSW,249,6.0,16.0,67,0.00,,,0.00,LWC V2.10 B1813,2013-02-21 06:17:00,
2013-02-21 01:22:00,22.8,13.2,29.87,SW,219,3.0,11.0,66,0.00,,,0.00,LWC V2.10 B1813,2013-02-21 06:22:00,
2013-02-21 01:27:00,22.8,13.2,29.86,WNW,294,7.0,11.0,66,0.00,,,0.00,LWC V2.10 B1813,2013-02-21 06:27:00,
2013-02-21 01:32:00,22.7,12.7,29.86,WNW,297,2.0,9.0,65,0.00,,,0.00,LWC V2.10 B1813,2013-02-21 06:32:00,
2013-02-21 01:37:00,22.7,12.7,29.87,South,186,4.0,8.0,65,0.00,,,0.00,LWC V2.10 B1813,2013-02-21 06:37:00,
2013-02-21 01:42:00,22.6,12.3,29.87,WNW,288,3.0,10.0,64,0.00,,,0.00,LWC V2.10 B1813,2013-02-21 06:42:00,
2013-02-21 01:47:00,22.6,12.6,29.87,SSW,205,5.0,11.0,65,0.00,,,0.00,LWC V2.10 B1813,2013-02-21 06:47:00,
2013-02-21 01:52:00,22.5,12.5,29.87,SW,229,9.0,12.0,65,0.00,,,0.00,LWC V2.10 B1813,2013-02-21 06:52:00,
2013-02-21 01:57:00,22.4,12.8,29.87,West,263,9.0,17.0,66,0.00,,,0.00,LWC V2.10 B1813,2013-02-21 06:57:00,
2013-02-21 02:02:00,22.3,12.3,29.87,North,355,1.0,16.0,65,0.00,,,0.00,LWC V2.10 B1813,2013-02-21 07:02:00,
2013-02-21 02:07:00,22.2,12.3,29.88,NW,311,3.0,9.0,65,0.00,,,0.00,LWC V2.10 B1813,2013-02-21 07:07:00,
2013-02-21 02:12:00,22.2,12.3,29.87,SSW,192,3.0,6.0,65,0.00,,,0.00,LWC V2.10 B1813,2013-02-21 07:12:00,
2013-02-21 02:17:00,22.1,12.2,29.87,WNW,302,6.0,12.0,65,0.00,,,0.00,LWC V2.10 B1813,2013-02-21 07:17:00,
2013-02-21 02:22:00,22.1,12.5,29.86,SSW,204,0.0,11.0,66,0.00,,,0.00,LWC V2.10 B1813,2013-02-21 07:22:00,
2013-02-21 02:27:00,22.0,12.1,29.87,NW,317,3.0,6.0,65,0.00,,,0.00,LWC V2.10 B1813,2013-02-21 07:27:00,
2013-02-21 02:32:00,21.9,12.0,29.87,WSW,252,3.0,8.0,65,0.00,,,0.00,LWC V2.10 B1813,2013-02-21 07:32:00,
2013-02-21 02:37:00,21.9,12.3,29.87,WSW,242,1.0,7.0,66,0.00,,,0.00,LWC V2.10 B1813,2013-02-21 07:37:00,
2013-02-21 02:42:00,21.9,12.3,29.87,NNW,336,4.0,6.0,66,0.00,,,0.00,LWC V2.10 B1813,2013-02-21 07:42:00,
2013-02-21 02:47:00,21.8,12.2,29.86,WSW,246,4.0,10.0,66,0.00,,,0.00,LWC V2.10 B1813,2013-02-21 07:47:00,
2013-02-21 02:52:00,21.8,12.6,29.87,WNW,294,2.0,4.0,67,0.00,,,0.00,LWC V2.10 B1813,2013-02-21 07:52:00,
2013-02-21 02:57:00,21.7,12.8,29.87,East,86,1.0,7.0,68,0.00,,,0.00,LWC V2.10 B1813,2013-02-21 07:57:00,
2013-02-21 03:02:00,21.6,12.7,29.86,West,272,4.0,9.0,68,0.00,,,0.00,LWC V2.10 B1813,2013-02-21 08:02:00,
2013-02-21 03:07:00,21.5,12.6,29.86,SSW,203,7.0,9.0,68,0.00,,,0.00,LWC V2.10 B1813,2013-02-21 08:07:00,
2013-02-21 03:12:00,21.5,12.9,29.86,NW,321,1.0,8.0,69,0.00,,,0.00,LWC V2.10 B1813,2013-02-21 08:12:00,
2013-02-21 03:17:00,21.4,12.8,29.86,North,355,1.0,7.0,69,0.00,,,0.00,LWC V2.10 B1813,2013-02-21 08:17:00,
2013-02-21 03:22:00,21.3,13.1,29.86,West,262,4.0,15.0,70,0.00,,,0.00,LWC V2.10 B1813,2013-02-21 08:22:00,
2013-02-21 03:27:00,21.2,13.0,29.86,WSW,242,2.0,10.0,70,0.00,,,0.00,LWC V2.10 B1813,2013-02-21 08:27:00,
2013-02-21 03:32:00,21.1,13.2,29.86,NW,307,2.0,7.0,71,0.00,,,0.00,LWC V2.10 B1813,2013-02-21 08:32:00,
2013-02-21 03:37:00,21.1,13.2,29.86,WNW,294,1.0,4.0,71,0.00,,,0.00,LWC V2.10 B1813,2013-02-21 08:37:00,
2013-02-21 03:42:00,21.1,13.2,29.85,NNW,339,0.0,4.0,71,0.00,,,0.00,LWC V2.10 B1813,2013-02-21 08:42:00,
2013-02-21 03:47:00,21.0,13.1,29.85,WSW,246,2.0,5.0,71,0.00,,,0.00,LWC V2.10 B1813,2013-02-21 08:47:00,
2013-02-21 03:52:00,21.0,13.1,29.85,West,266,1.0,4.0,71,0.00,,,0.00,LWC V2.10 B1813,2013-02-21 08:52:00,
2013-02-21 03:57:00,20.9,13.0,29.85,West,269,2.0,5.0,71,0.00,,,0.00,LWC V2.10 B1813,2013-02-21 08:57:00,
2013-02-21 04:02:00,20.9,13.0,29.85,SSW,194,7.0,9.0,71,0.00,,,0.00,LWC V2.10 B1813,2013-02-21 09:02:00,
2013-02-21 04:07:00,20.8,13.2,29.86,SW,229,1.0,4.0,72,0.00,,,0.00,LWC V2.10 B1813,2013-02-21 09:07:00,
2013-02-21 04:12:00,20.8,13.2,29.85,NW,308,1.0,7.0,72,0.00,,,0.00,LWC V2.10 B1813,2013-02-21 09:12:00,
2013-02-21 04:17:00,20.7,13.1,29.85,West,274,5.0,7.0,72,0.00,,,0.00,LWC V2.10 B1813,2013-02-21 09:17:00,
2013-02-21 04:22:00,20.7,13.1,29.85,West,275,2.0,9.0,72,0.00,,,0.00,LWC V2.10 B1813,2013-02-21 09:22:00,
2013-02-21 04:27:00,20.7,13.1,29.85,SW,225,0.0,4.0,72,0.00,,,0.00,LWC V2.10 B1813,2013-02-21 09:27:00,
2013-02-21 04:32:00,20.7,13.1,29.86,South,170,2.0,6.0,72,0.00,,,0.00,LWC V2.10 B1813,2013-02-21 09:32:00,
2013-02-21 04:37:00,20.7,13.1,29.86,West,270,5.0,12.0,72,0.00,,,0.00,LWC V2.10 B1813,2013-02-21 09:37:00,
2013-02-21 04:42:00,20.7,13.1,29.86,SE,138,4.0,8.0,72,0.00,,,0.00,LWC V2.10 B1813,2013-02-21 09:42:00,
2013-02-21 04:47:00,20.8,13.2,29.86,SSW,200,8.0,9.0,72,0.00,,,0.00,LWC V2.10 B1813,2013-02-21 09:47:00,
2013-02-21 04:52:00,20.8,12.9,29.86,South,174,2.0,16.0,71,0.00,,,0.00,LWC V2.10 B1813,2013-02-21 09:52:00,
2013-02-21 04:57:00,20.8,12.9,29.87,NW,317,3.0,8.0,71,0.00,,,0.00,LWC V2.10 B1813,2013-02-21 09:57:00,
2013-02-21 05:02:00,20.8,12.9,29.87,NE,48,2.0,4.0,71,0.00,,,0.00,LWC V2.10 B1813,2013-02-21 10:02:00,
2013-02-21 05:07:00,20.8,13.2,29.87,SE,131,0.0,3.0,72,0.00,,,0.00,LWC V2.10 B1813,2013-02-21 10:07:00,
2013-02-21 05:12:00,20.7,13.1,29.88,North,5,0.0,1.0,72,0.00,,,0.00,LWC V2.10 B1813,2013-02-21 10:12:00,
2013-02-21 05:17:00,20.7,13.1,29.88,NNE,28,0.0,0.0,72,0.00,,,0.00,LWC V2.10 B1813,2013-02-21 10:17:00,
2013-02-21 05:22:00,20.6,13.3,29.89,NW,323,1.0,3.0,73,0.00,,,0.00,LWC V2.10 B1813,2013-02-21 10:22:00,
2013-02-21 05:27:00,20.5,13.2,29.89,North,355,1.0,5.0,73,0.00,,,0.00,LWC V2.10 B1813,2013-02-21 10:27:00,
2013-02-21 05:32:00,20.5,12.9,29.89,West,281,2.0,4.0,72,0.00,,,0.00,LWC V2.10 B1813,2013-02-21 10:32:00,
2013-02-21 05:37:00,20.4,12.5,29.89,WNW,285,2.0,6.0,71,0.00,,,0.00,LWC V2.10 B1813,2013-02-21 10:37:00,
2013-02-21 05:42:00,20.3,12.4,29.90,NNW,344,0.0,5.0,71,0.00,,,0.00,LWC V2.10 B1813,2013-02-21 10:42:00,
2013-02-21 05:47:00,20.2,12.6,29.89,NNW,338,7.0,9.0,72,0.00,,,0.00,LWC V2.10 B1813,2013-02-21 10:47:00,
2013-02-21 05:52:00,20.1,12.2,29.90,East,82,1.0,3.0,71,0.00,,,0.00,LWC V2.10 B1813,2013-02-21 10:52:00,
2013-02-21 05:57:00,20.1,12.2,29.90,West,272,0.0,2.0,71,0.00,,,0.00,LWC V2.10 B1813,2013-02-21 10:57:00,
2013-02-21 06:02:00,20.0,12.1,29.89,NW,319,0.0,9.0,71,0.00,,,0.00,LWC V2.10 B1813,2013-02-21 11:02:00,
2013-02-21 06:07:00,19.9,12.0,29.89,SSW,211,6.0,7.0,71,0.00,,,0.00,LWC V2.10 B1813,2013-02-21 11:07:00,
2013-02-21 06:12:00,19.9,12.0,29.89,WNW,302,2.0,8.0,71,0.00,,,0.00,LWC V2.10 B1813,2013-02-21 11:12:00,
2013-02-21 06:17:00,19.9,11.7,29.89,SW,223,2.0,8.0,70,0.00,,,0.00,LWC V2.10 B1813,2013-02-21 11:17:00,
2013-02-21 06:22:00,19.9,11.7,29.90,WNW,298,0.0,9.0,70,0.00,,,0.00,LWC V2.10 B1813,2013-02-21 11:22:00,
2013-02-21 06:27:00,19.8,11.6,29.90,South,174,3.0,4.0,70,0.00,,,0.00,LWC V2.10 B1813,2013-02-21 11:27:00,
2013-02-21 06:32:00,19.8,11.6,29.90,ESE,123,4.0,4.0,70,0.00,,,0.00,LWC V2.10 B1813,2013-02-21 11:32:00,
2013-02-21 06:37:00,19.7,11.2,29.91,NW,306,8.0,12.0,69,0.00,,,0.00,LWC V2.10 B1813,2013-02-21 11:37:00,
2013-02-21 06:42:00,19.7,11.5,29.91,SE,139,3.0,5.0,70,0.00,,,0.00,LWC V2.10 B1813,2013-02-21 11:42:00,
2013-02-21 06:47:00,19.7,11.2,29.91,SSW,213,4.0,5.0,69,0.00,,,0.00,LWC V2.10 B1813,2013-02-21 11:47:00,
2013-02-21 06:52:00,19.7,10.9,29.91,ESE,105,0.0,10.0,68,0.00,,,0.00,LWC V2.10 B1813,2013-02-21 11:52:00,
2013-02-21 06:57:00,19.7,10.5,29.91,ENE,76,7.0,11.0,67,0.00,,,0.00,LWC V2.10 B1813,2013-02-21 11:57:00,
2013-02-21 07:02:00,19.7,10.5,29.92,South,184,8.0,12.0,67,0.00,,,0.00,LWC V2.10 B1813,2013-02-21 12:02:00,
2013-02-21 07:07:00,19.6,10.5,29.92,ESE,113,3.0,10.0,67,0.00,,,0.00,LWC V2.10 B1813,2013-02-21 12:07:00,
2013-02-21 07:12:00,19.6,10.8,29.92,North,5,1.0,6.0,68,0.00,,,0.00,LWC V2.10 B1813,2013-02-21 12:12:00,
2013-02-21 07:18:00,19.6,10.1,29.93,NNE,28,4.0,6.0,66,0.00,,,0.00,LWC V2.10 B1813,2013-02-21 12:18:00,
2013-02-21 07:23:00,19.4,10.6,29.93,NNE,19,10.0,11.0,68,0.00,,,0.00,LWC V2.10 B1813,2013-02-21 12:23:00,
2013-02-21 07:28:00,19.2,10.7,29.93,NNE,31,5.0,7.0,69,0.00,,,0.00,LWC V2.10 B1813,2013-02-21 12:28:00,
2013-02-21 07:33:00,19.0,11.2,29.93,West,279,3.0,3.0,71,0.00,,,0.00,LWC V2.10 B1813,2013-02-21 12:33:00,
2013-02-21 07:38:00,18.8,10.7,29.93,NW,304,1.0,15.0,70,0.00,,,0.00,LWC V2.10 B1813,2013-02-21 12:38:00,
2013-02-21 07:43:00,18.7,11.2,29.94,SW,227,1.0,8.0,72,0.00,,,0.00,LWC V2.10 B1813,2013-02-21 12:43:00,
2013-02-21 07:48:00,18.6,11.1,29.94,NNE,14,3.0,3.0,72,0.00,,,0.00,LWC V2.10 B1813,2013-02-21 12:48:00,
2013-02-21 07:53:00,18.6,11.4,29.94,NNW,342,2.0,7.0,73,0.00,,,0.00,LWC V2.10 B1813,2013-02-21 12:53:00,
2013-02-21 07:58:00,18.6,10.5,29.95,NNE,19,2.0,9.0,70,0.00,,,0.00,LWC V2.10 B1813,2013-02-21 12:58:00,
2013-02-21 08:03:00,18.6,10.1,29.95,SW,224,10.0,11.0,69,0.00,,,0.00,LWC V2.10 B1813,2013-02-21 13:03:00,
2013-02-21 08:08:00,18.6,9.8,29.95,NW,304,2.0,6.0,68,0.00,,,0.00,LWC V2.10 B1813,2013-02-21 13:08:00,
2013-02-21 08:13:00,18.4,9.3,29.94,WNW,295,1.0,4.0,67,0.00,,,0.00,LWC V2.10 B1813,2013-02-21 13:13:00,
2013-02-21 08:18:00,18.2,9.1,29.95,ENE,67,3.0,5.0,67,0.00,,,0.00,LWC V2.10 B1813,2013-02-21 13:18:00,
2013-02-21 08:23:00,18.1,9.0,29.95,NE,40,10.0,12.0,67,0.00,,,0.00,LWC V2.10 B1813,2013-02-21 13:23:00,
2013-02-21 08:28:00,17.9,8.8,29.95,North,9,4.0,4.0,67,0.00,,,0.00,LWC V2.10 B1813,2013-02-21 13:28:00,
2013-02-21 08:33:00,17.7,9.0,29.95,NNE,28,3.0,5.0,68,0.00,,,0.00,LWC V2.10 B1813,2013-02-21 13:33:00,
2013-02-21 08:38:00,17.6,9.2,29.96,NE,43,2.0,5.0,69,0.00,,,0.00,LWC V2.10 B1813,2013-02-21 13:38:00,
2013-02-21 08:43:00,17.5,9.1,29.96,East,100,2.0,2.0,69,0.00,,,0.00,LWC V2.10 B1813,2013-02-21 13:43:00,
2013-02-21 08:48:00,17.6,8.5,29.96,NE,55,3.0,7.0,67,0.00,,,0.00,LWC V2.10 B1813,2013-02-21 13:48:00,
2013-02-21 08:53:00,17.8,8.4,29.95,North,350,13.0,14.0,66,0.00,,,0.00,LWC V2.10 B1813,2013-02-21 13:53:00,
2013-02-21 08:58:00,17.7,8.0,29.97,SSE,162,5.0,5.0,65,0.00,,,0.00,LWC V2.10 B1813,2013-02-21 13:58:00,
2013-02-21 09:03:00,17.8,8.1,29.96,West,267,0.0,8.0,65,0.00,,,0.00,LWC V2.10 B1813,2013-02-21 14:03:00,
2013-02-21 09:08:00,17.9,7.8,29.96,ENE,78,0.0,8.0,64,0.00,,,0.00,LWC V2.10 B1813,2013-02-21 14:08:00,
2013-02-21 09:13:00,17.9,7.8,29.97,NNE,13,4.0,7.0,64,0.00,,,0.00,LWC V2.10 B1813,2013-02-21 14:13:00,
2013-02-21 09:18:00,17.9,7.5,29.97,ESE,109,3.0,12.0,63,0.00,,,0.00,LWC V2.10 B1813,2013-02-21 14:18:00,
2013-02-21 09:23:00,18.0,8.2,29.97,SSE,165,0.0,1.0,65,0.00,,,0.00,LWC V2.10 B1813,2013-02-21 14:23:00,
2013-02-21 09:28:00,18.2,8.1,29.98,WNW,283,4.0,5.0,64,0.00,,,0.00,LWC V2.10 B1813,2013-02-21 14:28:00,
2013-02-21 09:33:00,18.1,7.7,29.98,SSE,161,2.0,6.0,63,0.00,,,0.00,LWC V2.10 B1813,2013-02-21 14:33:00,
2013-02-21 09:38:00,18.1,8.0,29.98,NNE,32,3.0,3.0,64,0.00,,,0.00,LWC V2.10 B1813,2013-02-21 14:38:00,
2013-02-21 09:43:00,18.1,8.0,29.98,NNE,19,4.0,7.0,64,0.00,,,0.00,LWC V2.10 B1813,2013-02-21 14:43:00,
2013-02-21 09:48:00,18.0,8.2,29.98,SW,214,5.0,6.0,65,0.00,,,0.00,LWC V2.10 B1813,2013-02-21 14:48:00,
2013-02-21 09:53:00,18.0,7.9,29.98,North,10,1.0,2.0,64,0.00,,,0.00,LWC V2.10 B1813,2013-02-21 14:53:00,
2013-02-21 09:58:00,18.2,7.8,29.98,South,175,1.0,7.0,63,0.00,,,0.00,LWC V2.10 B1813,2013-02-21 14:58:00,
2013-02-21 10:03:00,18.3,8.2,29.99,North,5,3.0,5.0,64,0.00,,,0.00,LWC V2.10 B1813,2013-02-21 15:03:00,
2013-02-21 10:08:00,18.0,7.6,29.99,West,259,2.0,5.0,63,0.00,,,0.00,LWC V2.10 B1813,2013-02-21 15:08:00,
2013-02-21 10:13:00,18.2,7.4,29.99,NNW,340,3.0,3.0,62,0.00,,,0.00,LWC V2.10 B1813,2013-02-21 15:13:00,
2013-02-21 10:18:00,18.4,7.2,29.99,SE,129,5.0,17.0,61,0.00,,,0.00,LWC V2.10 B1813,2013-02-21 15:18:00,
2013-02-21 10:23:00,18.3,7.5,29.99,North,5,20.0,20.0,62,0.00,,,0.00,LWC V2.10 B1813,2013-02-21 15:23:00,
2013-02-21 10:28:00,18.4,7.6,30.00,NNW,336,0.0,9.0,62,0.00,,,0.00,LWC V2.10 B1813,2013-02-21 15:28:00,
2013-02-21 10:33:00,18.0,7.2,30.00,SSW,199,1.0,6.0,62,0.00,,,0.00,LWC V2.10 B1813,2013-02-21 15:33:00,
2013-02-21 10:38:00,18.2,7.4,30.00,West,279,1.0,4.0,62,0.00,,,0.00,LWC V2.10 B1813,2013-02-21 15:38:00,
2013-02-21 10:43:00,18.5,7.7,30.00,North,355,3.0,5.0,62,0.00,,,0.00,LWC V2.10 B1813,2013-02-21 15:43:00,
2013-02-21 10:48:00,18.9,8.1,30.00,SSW,205,4.0,5.0,62,0.00,,,0.00,LWC V2.10 B1813,2013-02-21 15:48:00,
2013-02-21 10:53:00,19.0,7.1,30.00,NW,325,2.0,3.0,59,0.00,,,0.00,LWC V2.10 B1813,2013-02-21 15:53:00,
2013-02-21 10:58:00,18.9,7.3,30.00,NE,43,1.0,8.0,60,0.00,,,0.00,LWC V2.10 B1813,2013-02-21 15:58:00,
2013-02-21 11:03:00,19.2,8.3,30.01,NNW,348,5.0,11.0,62,0.00,,,0.00,LWC V2.10 B1813,2013-02-21 16:03:00,
2013-02-21 11:08:00,18.4,6.9,30.01,West,266,2.0,3.0,60,0.00,,,0.00,LWC V2.10 B1813,2013-02-21 16:08:00,
2013-02-21 11:13:00,18.8,7.6,30.01,NNW,328,4.0,7.0,61,0.00,,,0.00,LWC V2.10 B1813,2013-02-21 16:13:00,
2013-02-21 11:18:00,18.6,7.4,30.02,East,98,8.0,8.0,61,0.00,,,0.00,LWC V2.10 B1813,2013-02-21 16:18:00,
2013-02-21 11:23:00,17.9,7.1,30.02,WNW,298,0.0,0.0,62,0.00,,,0.00,LWC V2.10 B1813,2013-02-21 16:23:00,
2013-02-21 11:28:00,18.6,7.8,30.02,NE,45,7.0,8.0,62,0.00,,,0.00,LWC V2.10 B1813,2013-02-21 16:28:00,
2013-02-21 11:33:00,18.9,8.1,30.02,South,178,4.0,7.0,62,0.00,,,0.00,LWC V2.10 B1813,2013-02-21 16:33:00,
2013-02-21 11:38:00,19.6,8.4,30.02,NW,311,5.0,8.0,61,0.00,,,0.00,LWC V2.10 B1813,2013-02-21 16:38:00,
2013-02-21 11:43:00,18.7,7.2,30.02,WSW,240,2.0,9.0,60,0.00,,,0.00,LWC V2.10 B1813,2013-02-21 16:43:00,
2013-02-21 11:48:00,19.1,7.5,30.02,WNW,286,2.0,10.0,60,0.00,,,0.00,LWC V2.10 B1813,2013-02-21 16:48:00,
2013-02-21 11:53:00,20.1,8.8,30.02,North,5,2.0,3.0,61,0.00,,,0.00,LWC V2.10 B1813,2013-02-21 16:53:00,
2013-02-21 11:58:00,19.1,6.8,30.03,South,185,0.0,4.0,58,0.00,,,0.00,LWC V2.10 B1813,2013-02-21 16:58:00,
2013-02-21 12:03:00,19.6,7.6,30.02,West,269,1.0,8.0,59,0.00,,,0.00,LWC V2.10 B1813,2013-02-21 17:03:00,
2013-02-21 12:08:00,19.6,7.6,30.03,WNW,282,2.0,15.0,59,0.00,,,0.00,LWC V2.10 B1813,2013-02-21 17:08:00,
2013-02-21 12:13:00,19.8,8.6,30.02,WSW,258,2.0,6.0,61,0.00,,,0.00,LWC V2.10 B1813,2013-02-21 17:13:00,
2013-02-21 12:18:00,19.9,7.5,30.02,WSW,254,2.0,8.0,58,0.00,,,0.00,LWC V2.10 B1813,2013-02-21 17:18:00,
2013-02-21 12:23:00,20.1,8.1,30.02,West,263,1.0,4.0,59,0.00,,,0.00,LWC V2.10 B1813,2013-02-21 17:23:00,
2013-02-21 12:28:00,20.8,8.0,30.02,North,0,4.0,5.0,57,0.00,,,0.00,LWC V2.10 B1813,2013-02-21 17:28:00,
2013-02-21 12:33:00,20.2,7.4,30.02,WSW,244,3.0,4.0,57,0.00,,,0.00,LWC V2.10 B1813,2013-02-21 17:33:00,
2013-02-21 12:38:00,20.3,8.3,30.02,SW,224,3.0,7.0,59,0.00,,,0.00,LWC V2.10 B1813,2013-02-21 17:38:00,
2013-02-21 12:43:00,21.0,8.6,30.02,NNW,333,2.0,3.0,58,0.00,,,0.00,LWC V2.10 B1813,2013-02-21 17:43:00,
2013-02-21 12:48:00,20.5,7.7,30.02,NW,323,1.0,8.0,57,0.00,,,0.00,LWC V2.10 B1813,2013-02-21 17:48:00,
2013-02-21 12:53:00,20.2,8.2,30.02,WNW,288,2.0,5.0,59,0.00,,,0.00,LWC V2.10 B1813,2013-02-21 17:53:00,
2013-02-21 12:58:00,20.7,7.9,30.02,NE,53,3.0,9.0,57,0.00,,,0.00,LWC V2.10 B1813,2013-02-21 17:58:00,
2013-02-21 13:03:00,21.0,9.0,30.02,SW,234,4.0,9.0,59,0.00,,,0.00,LWC V2.10 B1813,2013-02-21 18:03:00,
2013-02-21 13:08:00,20.0,8.0,30.02,WSW,247,3.0,3.0,59,0.00,,,0.00,LWC V2.10 B1813,2013-02-21 18:08:00,
2013-02-21 13:13:00,19.0,7.1,30.02,NW,305,1.0,3.0,59,0.00,,,0.00,LWC V2.10 B1813,2013-02-21 18:13:00,
2013-02-21 13:18:00,19.3,8.1,30.02,SW,229,4.0,8.0,61,0.00,,,0.00,LWC V2.10 B1813,2013-02-21 18:18:00,
2013-02-21 13:23:00,19.2,8.3,30.03,NW,326,3.0,3.0,62,0.00,,,0.00,LWC V2.10 B1813,2013-02-21 18:23:00,
2013-02-21 13:28:00,19.6,8.4,30.03,SSW,204,2.0,3.0,61,0.00,,,0.00,LWC V2.10 B1813,2013-02-21 18:28:00,
2013-02-21 13:33:00,20.3,8.3,30.03,NNW,331,1.0,5.0,59,0.00,,,0.00,LWC V2.10 B1813,2013-02-21 18:33:00,
2013-02-21 13:38:00,20.3,8.3,30.03,North,349,2.0,7.0,59,0.00,,,0.00,LWC V2.10 B1813,2013-02-21 18:38:00,
2013-02-21 13:43:00,20.1,8.1,30.03,WNW,282,3.0,4.0,59,0.00,,,0.00,LWC V2.10 B1813,2013-02-21 18:43:00,
2013-02-21 13:48:00,20.2,8.2,30.03,NNE,12,4.0,6.0,59,0.00,,,0.00,LWC V2.10 B1813,2013-02-21 18:48:00,
2013-02-21 13:53:00,19.7,7.7,30.03,NE,35,5.0,5.0,59,0.00,,,0.00,LWC V2.10 B1813,2013-02-21 18:53:00,
2013-02-21 13:58:00,19.5,8.3,30.03,North,11,8.0,10.0,61,0.00,,,0.00,LWC V2.10 B1813,2013-02-21 18:58:00,
2013-02-21 14:03:00,20.0,8.7,30.04,North,0,2.0,10.0,61,0.00,,,0.00,LWC V2.10 B1813,2013-02-21 19:03:00,
2013-02-21 14:08:00,20.5,8.9,30.04,SSW,198,3.0,6.0,60,0.00,,,0.00,LWC V2.10 B1813,2013-02-21 19:08:00,
2013-02-21 14:13:00,19.9,7.9,30.03,WSW,252,5.0,5.0,59,0.00,,,0.00,LWC V2.10 B1813,2013-02-21 19:13:00,
2013-02-21 14:18:00,20.0,8.4,30.03,SSW,195,0.0,1.0,60,0.00,,,0.00,LWC V2.10 B1813,2013-02-21 19:18:00,
2013-02-21 14:23:00,20.2,8.6,30.04,WNW,290,2.0,3.0,60,0.00,,,0.00,LWC V2.10 B1813,2013-02-21 19:23:00,
2013-02-21 14:28:00,20.4,8.4,30.04,WSW,250,2.0,2.0,59,0.00,,,0.00,LWC V2.10 B1813,2013-02-21 19:28:00,
2013-02-21 14:33:00,20.6,8.2,30.04,South,172,2.0,3.0,58,0.00,,,0.00,LWC V2.10 B1813,2013-02-21 19:33:00,
2013-02-21 14:38:00,20.8,8.4,30.04,SW,225,3.0,3.0,58,0.00,,,0.00,LWC V2.10 B1813,2013-02-21 19:38:00,
2013-02-21 14:43:00,20.8,8.8,30.04,NNE,31,0.0,7.0,59,0.00,,,0.00,LWC V2.10 B1813,2013-02-21 19:43:00,
2013-02-21 14:48:00,21.1,8.7,30.04,WSW,238,0.0,3.0,58,0.00,,,0.00,LWC V2.10 B1813,2013-02-21 19:48:00,
2013-02-21 14:53:00,21.0,8.6,30.05,NW,318,1.0,16.0,58,0.00,,,0.00,LWC V2.10 B1813,2013-02-21 19:53:00,
2013-02-21 14:58:00,20.9,8.9,30.05,SSW,210,4.0,7.0,59,0.00,,,0.00,LWC V2.10 B1813,2013-02-21 19:58:00,
2013-02-21 15:03:00,21.0,9.0,30.05,North,351,2.0,2.0,59,0.00,,,0.00,LWC V2.10 B1813,2013-02-21 20:03:00,
2013-02-21 15:08:00,20.8,8.8,30.05,SW,232,2.0,4.0,59,0.00,,,0.00,LWC V2.10 B1813,2013-02-21 20:08:00,
2013-02-21 15:13:00,20.9,8.5,30.05,NNW,333,2.0,11.0,58,0.00,,,0.00,LWC V2.10 B1813,2013-02-21 20:13:00,
2013-02-21 15:18:00,20.7,8.7,30.06,NNE,21,5.0,10.0,59,0.00,,,0.00,LWC V2.10 B1813,2013-02-21 20:18:00,
2013-02-21 15:23:00,20.7,8.3,30.06,ENE,70,14.0,15.0,58,0.00,,,0.00,LWC V2.10 B1813,2013-02-21 20:23:00,
2013-02-21 15:28:00,20.7,8.7,30.07,WSW,251,1.0,4.0,59,0.00,,,0.00,LWC V2.10 B1813,2013-02-21 20:28:00,
2013-02-21 15:33:00,21.2,8.8,30.08,NNW,342,3.0,8.0,58,0.00,,,0.00,LWC V2.10 B1813,2013-02-21 20:33:00,
2013-02-21 15:38:00,21.1,8.3,30.08,South,173,4.0,8.0,57,0.00,,,0.00,LWC V2.10 B1813,2013-02-21 20:38:00,
2013-02-21 15:43:00,21.0,9.0,30.08,North,355,3.0,13.0,59,0.00,,,0.00,LWC V2.10 B1813,2013-02-21 20:43:00,
2013-02-21 15:48:00,21.2,8.4,30.08,SSW,200,2.0,6.0,57,0.00,,,0.00,LWC V2.10 B1813,2013-02-21 20:48:00,
2013-02-21 15:53:00,20.6,8.6,30.08,NW,305,2.0,7.0,59,0.00,,,0.00,LWC V2.10 B1813,2013-02-21 20:53:00,
2013-02-21 15:58:00,20.9,8.9,30.08,West,269,0.0,2.0,59,0.00,,,0.00,LWC V2.10 B1813,2013-02-21 20:58:00,
2013-02-21 16:03:00,21.0,8.6,30.09,NW,319,3.0,6.0,58,0.00,,,0.00,LWC V2.10 B1813,2013-02-21 21:03:00,
2013-02-21 16:08:00,21.0,9.0,30.09,WSW,246,2.0,8.0,59,0.00,,,0.00,LWC V2.10 B1813,2013-02-21 21:08:00,
2013-02-21 16:13:00,20.8,8.8,30.10,West,265,5.0,7.0,59,0.00,,,0.00,LWC V2.10 B1813,2013-02-21 21:13:00,
2013-02-21 16:18:00,21.1,8.7,30.09,NNW,338,3.0,3.0,58,0.00,,,0.00,LWC V2.10 B1813,2013-02-21 21:18:00,
2013-02-21 16:23:00,21.0,8.6,30.10,NNW,348,0.0,2.0,58,0.00,,,0.00,LWC V2.10 B1813,2013-02-21 21:23:00,
2013-02-21 16:28:00,20.7,8.7,30.11,SW,217,2.0,3.0,59,0.00,,,0.00,LWC V2.10 B1813,2013-02-21 21:28:00,
2013-02-21 16:33:00,20.3,8.7,30.11,West,261,1.0,3.0,60,0.00,,,0.00,LWC V2.10 B1813,2013-02-21 21:33:00,
2013-02-21 16:38:00,20.2,8.6,30.11,SE,138,2.0,5.0,60,0.00,,,0.00,LWC V2.10 B1813,2013-02-21 21:38:00,
2013-02-21 16:43:00,20.0,8.4,30.12,SSW,213,3.0,4.0,60,0.00,,,0.00,LWC V2.10 B1813,2013-02-21 21:43:00,
2013-02-21 16:48:00,19.9,8.6,30.12,NNW,339,0.0,1.0,61,0.00,,,0.00,LWC V2.10 B1813,2013-02-21 21:48:00,
2013-02-21 16:53:00,20.1,8.5,30.12,NNE,21,2.0,7.0,60,0.00,,,0.00,LWC V2.10 B1813,2013-02-21 21:53:00,
2013-02-21 16:58:00,20.1,8.5,30.13,SE,139,1.0,3.0,60,0.00,,,0.00,LWC V2.10 B1813,2013-02-21 21:58:00,
2013-02-21 17:03:00,20.1,8.5,30.14,SSE,163,5.0,8.0,60,0.00,,,0.00,LWC V2.10 B1813,2013-02-21 22:03:00,
2013-02-21 17:08:00,20.1,8.8,30.14,South,174,4.0,7.0,61,0.00,,,0.00,LWC V2.10 B1813,2013-02-21 22:08:00,
2013-02-21 17:13:00,20.1,9.2,30.14,WSW,258,4.0,7.0,62,0.00,,,0.00,LWC V2.10 B1813,2013-02-21 22:13:00,
2013-02-21 17:18:00,20.0,9.1,30.15,SSW,208,1.0,5.0,62,0.00,,,0.00,LWC V2.10 B1813,2013-02-21 22:18:00,
2013-02-21 17:23:00,19.8,8.9,30.15,SSW,202,2.0,4.0,62,0.00,,,0.00,LWC V2.10 B1813,2013-02-21 22:23:00,
2013-02-21 17:28:00,19.8,8.9,30.15,SW,217,2.0,4.0,62,0.00,,,0.00,LWC V2.10 B1813,2013-02-21 22:28:00,
2013-02-21 17:33:00,19.8,9.3,30.16,SSW,204,0.0,2.0,63,0.00,,,0.00,LWC V2.10 B1813,2013-02-21 22:33:00,
2013-02-21 17:38:00,19.8,9.3,30.16,SSW,204,1.0,3.0,63,0.00,,,0.00,LWC V2.10 B1813,2013-02-21 22:38:00,
2013-02-21 17:43:00,19.8,9.3,30.16,SSW,211,0.0,1.0,63,0.00,,,0.00,LWC V2.10 B1813,2013-02-21 22:43:00,
2013-02-21 17:48:00,19.6,9.1,30.16,SSW,211,0.0,1.0,63,0.00,,,0.00,LWC V2.10 B1813,2013-02-21 22:48:00,
2013-02-21 17:53:00,19.6,9.4,30.17,WSW,244,0.0,1.0,64,0.00,,,0.00,LWC V2.10 B1813,2013-02-21 22:53:00,
2013-02-21 17:58:00,19.6,9.4,30.17,North,0,3.0,3.0,64,0.00,,,0.00,LWC V2.10 B1813,2013-02-21 22:58:00,
2013-02-21 18:03:00,19.6,9.1,30.18,North,9,1.0,1.0,63,0.00,,,0.00,LWC V2.10 B1813,2013-02-21 23:03:00,
2013-02-21 18:08:00,19.7,9.5,30.18,NNE,22,1.0,4.0,64,0.00,,,0.00,LWC V2.10 B1813,2013-02-21 23:08:00,
2013-02-21 18:13:00,19.8,9.6,30.18,West,263,0.0,3.0,64,0.00,,,0.00,LWC V2.10 B1813,2013-02-21 23:13:00,
2013-02-21 18:18:00,19.9,9.4,30.19,ENE,73,3.0,4.0,63,0.00,,,0.00,LWC V2.10 B1813,2013-02-21 23:18:00,
2013-02-21 18:23:00,19.9,9.4,30.19,NNW,348,2.0,9.0,63,0.00,,,0.00,LWC V2.10 B1813,2013-02-21 23:23:00,
2013-02-21 18:28:00,19.8,9.6,30.19,WSW,246,1.0,2.0,64,0.00,,,0.00,LWC V2.10 B1813,2013-02-21 23:28:00,
2013-02-21 18:33:00,19.9,9.7,30.19,NW,306,0.0,1.0,64,0.00,,,0.00,LWC V2.10 B1813,2013-02-21 23:33:00,
2013-02-21 18:38:00,19.9,9.7,30.19,NNW,344,0.0,0.0,64,0.00,,,0.00,LWC V2.10 B1813,2013-02-21 23:38:00,
2013-02-21 18:43:00,20.0,10.2,30.19,NNW,344,0.0,0.0,65,0.00,,,0.00,LWC V2.10 B1813,2013-02-21 23:43:00,
2013-02-21 18:48:00,20.2,10.3,30.19,North,0,0.0,2.0,65,0.00,,,0.00,LWC V2.10 B1813,2013-02-21 23:48:00,
2013-02-21 18:53:00,20.5,10.6,30.19,North,5,3.0,3.0,65,0.00,,,0.00,LWC V2.10 B1813,2013-02-21 23:53:00,
2013-02-21 18:58:00,20.8,10.9,30.20,ENE,66,2.0,5.0,65,0.00,,,0.00,LWC V2.10 B1813,2013-02-21 23:58:00,
2013-02-21 19:03:00,21.1,10.9,30.20,NE,42,5.0,6.0,64,0.00,,,0.00,LWC V2.10 B1813,2013-02-22 00:03:00,
2013-02-21 19:08:00,21.3,11.0,30.20,North,0,6.0,11.0,64,0.00,,,0.00,LWC V2.10 B1813,2013-02-22 00:08:00,
2013-02-21 19:13:00,21.5,11.6,30.20,North,5,4.0,8.0,65,0.00,,,0.00,LWC V2.10 B1813,2013-02-22 00:13:00,
2013-02-21 19:18:00,21.5,11.2,30.20,NW,325,5.0,8.0,64,0.00,,,0.00,LWC V2.10 B1813,2013-02-22 00:18:00,
2013-02-21 19:23:00,21.7,11.4,30.20,North,5,7.0,9.0,64,0.00,,,0.00,LWC V2.10 B1813,2013-02-22 00:23:00,
2013-02-21 19:28:00,21.7,11.4,30.20,NE,38,4.0,4.0,64,0.00,,,0.00,LWC V2.10 B1813,2013-02-22 00:28:00,
2013-02-21 19:33:00,21.5,11.2,30.20,NNE,16,6.0,11.0,64,0.00,,,0.00,LWC V2.10 B1813,2013-02-22 00:33:00,
2013-02-21 19:38:00,21.4,11.1,30.21,NNE,23,3.0,6.0,64,0.00,,,0.00,LWC V2.10 B1813,2013-02-22 00:38:00,
2013-02-21 19:43:00,21.5,11.2,30.21,NE,36,6.0,6.0,64,0.00,,,0.00,LWC V2.10 B1813,2013-02-22 00:43:00,
2013-02-21 19:48:00,21.3,11.4,30.21,NE,41,5.0,8.0,65,0.00,,,0.00,LWC V2.10 B1813,2013-02-22 00:48:00,
2013-02-21 19:53:00,20.9,11.0,30.21,ENE,74,2.0,6.0,65,0.00,,,0.00,LWC V2.10 B1813,2013-02-22 00:53:00,
2013-02-21 19:58:00,20.8,11.3,30.22,NE,35,8.0,11.0,66,0.00,,,0.00,LWC V2.10 B1813,2013-02-22 00:58:00,
2013-02-21 20:03:00,21.0,11.5,30.22,NNE,20,10.0,10.0,66,0.00,,,0.00,LWC V2.10 B1813,2013-02-22 01:03:00,
2013-02-21 20:08:00,21.0,11.5,30.22,NNE,25,3.0,6.0,66,0.00,,,0.00,LWC V2.10 B1813,2013-02-22 01:08:00,
2013-02-21 20:13:00,21.0,11.8,30.23,NE,48,3.0,9.0,67,0.00,,,0.00,LWC V2.10 B1813,2013-02-22 01:13:00,
2013-02-21 20:18:00,21.0,11.5,30.23,ENE,60,4.0,9.0,66,0.00,,,0.00,LWC V2.10 B1813,2013-02-22 01:18:00,
2013-02-21 20:23:00,21.0,11.5,30.23,NNE,24,5.0,7.0,66,0.00,,,0.00,LWC V2.10 B1813,2013-02-22 01:23:00,
2013-02-21 20:28:00,21.0,11.8,30.24,NE,40,3.0,9.0,67,0.00,,,0.00,LWC V2.10 B1813,2013-02-22 01:28:00,
2013-02-21 20:33:00,21.0,11.8,30.25,NNE,33,5.0,9.0,67,0.00,,,0.00,LWC V2.10 B1813,2013-02-22 01:33:00,
2013-02-21 20:38:00,21.0,12.1,30.25,North,0,3.0,7.0,68,0.00,,,0.00,LWC V2.10 B1813,2013-02-22 01:38:00,
2013-02-21 20:43:00,21.5,12.9,30.26,North,355,3.0,10.0,69,0.00,,,0.00,LWC V2.10 B1813,2013-02-22 01:43:00,
2013-02-21 20:48:00,21.8,13.2,30.26,North,5,0.0,0.0,69,0.00,,,0.00,LWC V2.10 B1813,2013-02-22 01:48:00,
2013-02-21 20:53:00,21.4,12.5,30.26,SSE,158,4.0,5.0,68,0.00,,,0.00,LWC V2.10 B1813,2013-02-22 01:53:00,
2013-02-21 20:58:00,21.3,12.7,30.27,SSW,194,4.0,4.0,69,0.00,,,0.00,LWC V2.10 B1813,2013-02-22 01:58:00,
2013-02-21 21:03:00,22.0,13.4,30.27,East,92,2.0,3.0,69,0.00,,,0.00,LWC V2.10 B1813,2013-02-22 02:03:00,
2013-02-21 21:08:00,21.5,12.3,30.28,South,185,3.0,4.0,67,0.00,,,0.00,LWC V2.10 B1813,2013-02-22 02:08:00,
2013-02-21 21:13:00,21.2,12.3,30.28,NNE,13,2.0,9.0,68,0.00,,,0.00,LWC V2.10 B1813,2013-02-22 02:13:00,
2013-02-21 21:18:00,21.3,12.4,30.29,SSW,212,0.0,4.0,68,0.00,,,0.00,LWC V2.10 B1813,2013-02-22 02:18:00,
2013-02-21 21:23:00,21.0,11.5,30.28,SE,138,0.0,2.0,66,0.00,,,0.00,LWC V2.10 B1813,2013-02-22 02:23:00,
2013-02-21 21:28:00,20.8,11.9,30.28,SE,138,0.0,0.0,68,0.00,,,0.00,LWC V2.10 B1813,2013-02-22 02:28:00,
2013-02-21 21:33:00,20.7,11.8,30.29,South,173,2.0,2.0,68,0.00,,,0.00,LWC V2.10 B1813,2013-02-22 02:33:00,
2013-02-21 21:38:00,20.7,12.2,30.30,South,173,0.0,0.0,69,0.00,,,0.00,LWC V2.10 B1813,2013-02-22 02:38:00,
2013-02-21 21:43:00,20.6,12.4,30.30,SSE,161,2.0,2.0,70,0.00,,,0.00,LWC V2.10 B1813,2013-02-22 02:43:00,
2013-02-21 21:48:00,20.6,12.1,30.31,North,0,0.0,2.0,69,0.00,,,0.00,LWC V2.10 B1813,2013-02-22 02:48:00,
2013-02-21 21:53:00,20.8,12.3,30.31,NNE,29,0.0,1.0,69,0.00,,,0.00,LWC V2.10 B1813,2013-02-22 02:53:00,
2013-02-21 21:58:00,20.6,11.7,30.31,SE,129,2.0,2.0,68,0.00,,,0.00,LWC V2.10 B1813,2013-02-22 02:58:00,
2013-02-21 22:03:00,20.5,12.0,30.32,South,186,0.0,0.0,69,0.00,,,0.00,LWC V2.10 B1813,2013-02-22 03:03:00,
2013-02-21 22:08:00,20.5,12.3,30.31,South,179,3.0,5.0,70,0.00,,,0.00,LWC V2.10 B1813,2013-02-22 03:08:00,
2013-02-21 22:13:00,20.4,11.9,30.32,SSW,202,0.0,5.0,69,0.00,,,0.00,LWC V2.10 B1813,2013-02-22 03:13:00,
2013-02-21 22:18:00,20.2,11.7,30.33,NW,321,1.0,3.0,69,0.00,,,0.00,LWC V2.10 B1813,2013-02-22 03:18:00,
2013-02-21 22:23:00,20.0,11.5,30.34,WNW,288,1.0,3.0,69,0.00,,,0.00,LWC V2.10 B1813,2013-02-22 03:23:00,
2013-02-21 22:28:00,19.9,11.4,30.34,WNW,298,2.0,10.0,69,0.00,,,0.00,LWC V2.10 B1813,2013-02-22 03:28:00,
2013-02-21 22:33:00,20.0,11.8,30.35,NW,308,3.0,8.0,70,0.00,,,0.00,LWC V2.10 B1813,2013-02-22 03:33:00,
2013-02-21 22:38:00,19.8,11.6,30.36,NW,311,2.0,4.0,70,0.00,,,0.00,LWC V2.10 B1813,2013-02-22 03:38:00,
2013-02-21 22:43:00,19.7,11.5,30.36,SW,214,3.0,3.0,70,0.00,,,0.00,LWC V2.10 B1813,2013-02-22 03:43:00,
2013-02-21 22:48:00,19.6,11.4,30.35,NNW,340,3.0,3.0,70,0.00,,,0.00,LWC V2.10 B1813,2013-02-22 03:48:00,
2013-02-21 22:53:00,19.6,11.4,30.37,WSW,256,3.0,5.0,70,0.00,,,0.00,LWC V2.10 B1813,2013-02-22 03:53:00,
2013-02-21 22:58:00,19.5,11.3,30.38,NNE,13,2.0,9.0,70,0.00,,,0.00,LWC V2.10 B1813,2013-02-22 03:58:00,
2013-02-21 23:03:00,19.4,11.2,30.37,NNE,25,4.0,7.0,70,0.00,,,0.00,LWC V2.10 B1813,2013-02-22 04:03:00,
2013-02-21 23:08:00,19.4,11.6,30.38,NNW,342,2.0,4.0,71,0.00,,,0.00,LWC V2.10 B1813,2013-02-22 04:08:00,
2013-02-21 23:13:00,19.3,11.5,30.38,NNE,29,3.0,4.0,71,0.00,,,0.00,LWC V2.10 B1813,2013-02-22 04:13:00,
2013-02-21 23:18:00,19.2,11.4,30.39,North,5,5.0,8.0,71,0.00,,,0.00,LWC V2.10 B1813,2013-02-22 04:18:00,
2013-02-21 23:23:00,19.0,11.2,30.38,North,0,3.0,4.0,71,0.00,,,0.00,LWC V2.10 B1813,2013-02-22 04:23:00,
2013-02-21 23:28:00,19.1,11.6,30.38,North,355,0.0,3.0,72,0.00,,,0.00,LWC V2.10 B1813,2013-02-22 04:28:00,
2013-02-21 23:33:00,19.0,11.5,30.38,NE,36,0.0,1.0,72,0.00,,,0.00,LWC V2.10 B1813,2013-02-22 04:33:00,
2013-02-21 23:38:00,19.2,11.7,30.38,NE,36,0.0,0.0,72,0.00,,,0.00,LWC V2.10 B1813,2013-02-22 04:38:00,
2013-02-21 23:43:00,19.3,12.1,30.38,NE,35,0.0,1.0,73,0.00,,,0.00,LWC V2.10 B1813,2013-02-22 04:43:00,
2013-02-21 23:48:00,19.3,11.8,30.38,NE,35,0.0,0.0,72,0.00,,,0.00,LWC V2.10 B1813,2013-02-22 04:48:00,
2013-02-21 23:53:00,19.4,11.9,30.39,NNE,32,1.0,1.0,72,0.00,,,0.00,LWC V2.10 B1813,2013-02-22 04:53:00,
2013-02-21 23:58:00,19.4,11.9,30.39,NNE,32,0.0,1.0,72,0.00,,,0.00,LWC V2.10 B1813,2013-02-22 04:58:00,